TimeMDT,TemperatureF,Dew PointF,Humidity,Sea Level PressureIn,VisibilityMPH,Wind Direction,Wind SpeedMPH,Gust SpeedMPH,PrecipitationIn,Events,Conditions,WindDirDegrees,DateUTC
12:53 AM,43.0,10.0,26,30.05,10.0,NNE,6.9,-,N/A,,Clear,20,2012-10-07 06:53:00
1:53 AM,45.0,10.9,25,30.04,10.0,Calm,Calm,-,N/A,,Clear,0,2012-10-07 07:53:00
2:53 AM,37.0,9.0,31,30.08,10.0,NE,6.9,-,N/A,,Clear,50,2012-10-07 08:53:00
3:53 AM,37.0,10.9,34,30.09,10.0,North,3.5,-,N/A,,Clear,360,2012-10-07 09:53:00
4:53 AM,39.9,10.9,31,30.08,10.0,NW,4.6,-,N/A,,Clear,310,2012-10-07 10:53:00
5:53 AM,37.0,7.0,29,30.11,10.0,North,8.1,-,N/A,,Clear,360,2012-10-07 11:53:00
6:53 AM,36.0,6.1,29,30.13,10.0,North,10.4,-,N/A,,Clear,360,2012-10-07 12:53:00
7:53 AM,39.0,3.9,23,30.15,10.0,North,13.8,-,N/A,,Clear,350,2012-10-07 13:53:00
8:53 AM,48.0,3.0,16,30.15,10.0,North,8.1,-,N/A,,Clear,350,2012-10-07 14:53:00
9:53 AM,51.1,1.0,13,30.13,10.0,East,4.6,-,N/A,,Clear,90,2012-10-07 15:53:00
10:53 AM,55.9,-0.9,10,30.13,10.0,Variable,5.8,-,N/A,,Clear,0,2012-10-07 16:53:00
11:53 AM,57.0,3.9,12,30.14,10.0,SE,10.4,-,N/A,,Clear,140,2012-10-07 17:53:00
12:53 PM,57.9,1.0,10,30.11,10.0,South,6.9,-,N/A,,Clear,170,2012-10-07 18:53:00
1:53 PM,60.1,1.9,10,30.06,10.0,SW,6.9,-,N/A,,Clear,220,2012-10-07 19:53:00
2:53 PM,62.1,1.9,9,30.07,10.0,Variable,4.6,-,N/A,,Clear,0,2012-10-07 20:53:00
3:53 PM,63.0,1.9,9,30.06,10.0,South,8.1,-,N/A,,Clear,180,2012-10-07 21:53:00
4:53 PM,63.0,3.0,9,30.03,10.0,SSW,6.9,-,N/A,,Clear,210,2012-10-07 22:53:00
5:53 PM,62.1,3.0,9,30.05,10.0,South,8.1,-,N/A,,Clear,190,2012-10-07 23:53:00
6:53 PM,57.9,3.0,11,30.07,10.0,Calm,Calm,-,N/A,,Clear,0,2012-10-08 00:53:00
7:53 PM,46.9,3.0,16,30.12,10.0,NNE,10.4,-,N/A,,Clear,20,2012-10-08 01:53:00
8:53 PM,45.0,3.9,18,30.09,10.0,NE,9.2,-,N/A,,Clear,40,2012-10-08 02:53:00
9:53 PM,45.0,3.9,18,30.10,10.0,ENE,8.1,-,N/A,,Clear,60,2012-10-08 03:53:00
10:53 PM,41.0,5.0,23,30.09,10.0,NNE,11.5,-,N/A,,Clear,20,2012-10-08 04:53:00
11:53 PM,39.0,5.0,24,30.11,10.0,NNE,9.2,-,N/A,,Clear,30,2012-10-08 05:53:00